Location: Northern Prairie Star Party
(53.2167°N, 112.5333°W)
Time: 15:06:33
(UTC-06:00)

Daily predictions for brighter satellites

Satellite Brightness Start Highest point End
(mag) Time Altitude Azimuth Time Altitude Azimuth Time Altitude Azimuth
Cosmos 1766 3.3 22:37:46 10° N 22:41:48 76° E 22:45:49 10° SSE
H-2A R/B 4.3 22:38:28 10° SW 22:41:51 22° W 22:45:19 10° NW
Cosmos 1758 4.0 22:38:44 10° N 22:42:41 42° ENE 22:46:37 10° SE
Cosmos 2208 Rocket 4.4 22:38:12 10° NNW 22:43:19 54° ENE 22:48:24 10° SE
ARGOS 3.3 22:38:14 10° SSE 22:43:41 85° WSW 22:49:10 10° NNW
IGS 5A 4.1 22:42:15 10° SE 22:46:12 44° ENE 22:50:11 10° N
Cosmos 2084 3.5 22:43:59 10° NW 22:48:02 68° SW 22:52:16 10° SE
Cosmos 2369 Rocket 3.2 22:43:52 10° NW 22:49:10 41° WSW 22:54:25 10° S
SL-8 R/B 4.2 22:48:47 10° W 22:53:21 42° SSW 22:57:54 10° ESE
Lacrosse 4 Rocket 1.6 22:50:04 10° SSW 22:53:58 46° ESE 22:57:55 10° NE
UNK 4.3 22:48:51 10° NNE 22:54:15 85° WNW 22:59:55 10° SSW
SeaSat 1 4.0 22:59:56 10° SSW 23:04:09 28° WSW 23:08:25 10° NW
SL-16 R/B 4.5 23:01:15 10° W 23:06:11 30° NW 23:11:09 10° NNE
Cosmos 2221 4.2 23:04:15 10° NNE 23:07:39 22° ENE 23:11:01 10° ESE
YAOGAN 6 4.2 23:05:02 10° SSW 23:08:25 32° W 23:11:50 10° NNW
SL-08 RB Rocket 4.1 23:04:08 10° S 23:08:37 59° WSW 23:13:07 10° NNW
Cosmos 1470 3.9 23:05:20 10° N 23:08:50 30° ENE 23:11:59 12° SE
Cosmos 1953 Rocket 3.8 23:05:50 10° SSW 23:10:15 74° WNW 23:14:45 10° N
Cosmos-2242 3.1 23:06:23 10° NNW 23:10:50 86° W 23:15:08 11° S
Cosmos 1805 3.3 23:07:24 10° N 23:11:22 69° ENE 23:14:51 13° SSE
CZ-4B R/B 3.8 23:06:31 10° NNE 23:11:35 72° WNW 23:16:44 10° SSW
ISS -3.0 23:12:45 10° SW 23:15:53 43° SSE 23:19:01 10° E
Cosmos 1544 3.7 23:13:52 10° N 23:17:31 45° ENE 23:20:28 14° SE
Cosmos 1570 Rocket 4.1 23:12:20 10° NNW 23:17:44 85° WSW 23:22:33 13° SSE
Cosmos 1190 Rocket 4.2 23:13:59 10° SSW 23:19:18 80° WNW 23:24:41 10° NNE
CZ-4C R/B 4.2 23:17:21 10° S 23:21:23 47° W 23:25:13 10° NNW
H-2A R/B 2.1 23:16:38 11° SSE 23:21:27 79° WSW 23:26:37 10° NNW
Cosmos 2279 Rocket 4.4 23:17:31 10° NNW 23:23:42 62° W 23:29:50 10° S
SAR-Lupe-2 4.0 23:23:19 12° S 23:26:32 59° WSW 23:30:07 10° NNW
Cosmos 1953 2.7 23:28:00 10° NNW 23:31:57 62° W 23:35:29 12° S
CZ-4 R/B 4.4 23:27:24 10° N 23:32:21 66° WNW 23:37:20 10° SSW
CZ-4C R/B 3.8 23:30:35 12° SE 23:32:48 15° ESE 23:36:06 10° ENE
Cosmos 1140 Rocket 3.8 23:27:54 10° S 23:32:57 49° ESE 23:38:01 10° NE
COSMOS 2406 3.6 23:27:55 10° S 23:33:18 44° ESE 23:38:44 10° NE
Cosmos 676 Rocket 4.1 23:31:02 10° SSW 23:36:23 89° W 23:41:45 10° NNE
Lacrosse 5 rocket 2.4 23:33:38 10° WNW 23:37:35 49° N 23:41:47 10° ENE
Cosmos 1697 Rocket 4.5 23:33:06 10° NNW 23:37:51 27° NE 23:42:37 10° E
Okean 3 Rocket 4.4 23:41:45 17° SSE 23:44:41 37° E 23:48:47 10° NNE
Cosmos 1943 Rocket 3.2 23:40:48 10° NW 23:45:50 36° WSW 23:50:34 12° S
CARTOSAT-1 4.3 23:42:24 12° S 23:46:16 46° W 23:50:28 10° NNW
ATLAS 3B R/B 3.0 23:38:50 10° SW 23:46:32 88° SE 23:53:59 10° NE
Spot 4 4.2 23:43:13 14° S 23:47:20 60° WSW 23:52:06 10° NNW
DMSP B5D2-2 4.1 23:43:05 10° NNE 23:48:25 79° ESE 23:53:33 11° SSW
Cosmos 1707 3.8 23:48:09 18° SE 23:50:25 32° E 23:53:57 10° NNE
Terra 2.6 23:49:14 12° S 23:53:27 45° W 23:58:03 10° NNW
